CW3786 Weather Reports


Display with metric or nautical units.
time (UTC)temp
F
wind
direction
speed
MPH
gust
MPH
rain 1hr
in
rain 24hr
in
rain mn
in
humidity
%
barometer
mb
20260902191551 78 125 0.0 0.0 0.00 0.00 0.00 52 1008.4
20260902190048 77 348 1.0 0.0 0.00 0.00 0.00 56 1008.6
20260902184529 77 229 1.0 0.0 0.00 0.00 0.00 55 1008.6
20260902183021 77 71 1.0 0.0 0.00 0.00 0.00 54 1008.6
20260902181556 76 102 1.0 0.0 0.00 0.00 0.00 55 1008.6
20260902180036 76 67 0.0 0.0 0.00 0.00 0.00 58 1008.6
20260902174513 76 69 1.0 0.0 0.00 0.00 0.00 57 1008.6
20260902173046 74 71 0.0 0.0 0.00 0.00 0.00 61 1008.6
20260902171546 72 70 1.0 0.0 0.00 0.00 0.00 68 1008.6
20260902170023 69 44 0.0 0.0 0.00 0.00 0.00 72 1008.5
20260902164508 67 9 0.0 0.0 0.00 0.00 0.00 76 1008.5
20260902163017 66 360 0.0 0.0 0.00 0.00 0.00 77 1008.5
20260902161551 65 360 0.0 0.0 0.00 0.00 0.00 82 1008.5
20260902160036 64 360 0.0 0.0 0.00 0.00 0.00 89 1008.5
20260902154524 63 355 0.0 0.0 0.00 0.00 0.00 91 1008.2
20260902153028 63 355 0.0 0.0 0.00 0.00 0.00 93 1008.3
20260902151518 62 355 0.0 0.0 0.00 0.00 0.00 94 1008.3
20260902150044 62 355 0.0 0.0 0.00 0.00 0.00 95 1008.3
20260902144528 62 351 0.0 0.0 0.00 0.00 0.00 95 1008.2
20260902143026 60 355 0.0 0.0 0.00 0.00 0.00 95 1008.1
20260902141601 60 355 0.0 0.0 0.00 0.00 0.00 94 1008.0
20260902141502 60 355 0.0 0.0 0.00 0.00 0.00 94 1007.9
20260902140033 59 355 0.0 0.0 0.00 0.00 0.00 94 1007.9
20260902134537 59 355 0.0 0.0 0.00 0.00 0.00 94 1007.7
20260902133048 59 355 0.0 0.0 0.00 0.00 0.00 94 1007.6
20260902131543 59 355 0.0 0.0 0.00 0.00 0.00 93 1007.6
20260902130035 59 355 0.0 0.0 0.00 0.00 0.00 93 1007.6
20260902124526 59 355 0.0 0.0 0.00 0.00 0.00 93 1007.5
20260902123054 59 355 0.0 0.0 0.00 0.00 0.00 93 1007.6
20260902121542 59 355 0.0 0.0 0.00 0.00 0.00 93 1007.6
20260902120018 59 355 0.0 0.0 0.00 0.00 0.00 92 1007.6
20260902114507 59 355 0.0 0.0 0.00 0.00 0.00 92 1007.6
20260902113027 59 355 0.0 0.0 0.00 0.00 0.00 91 1007.6
20260902111507 59 355 0.0 0.0 0.00 0.00 0.00 91 1007.6
20260902110100 59 355 0.0 0.0 0.00 0.00 0.00 91 1007.6
20260902104614 59 355 0.0 0.0 0.00 0.00 0.00 91 1007.6
20260902103042 59 355 0.0 0.0 0.00 0.00 0.00 91 1007.6
20260902101511 60 355 0.0 0.0 0.00 0.00 0.00 91 1007.8
20260902100109 60 355 0.0 0.0 0.00 0.00 0.00 91 1007.8
20260902094525 60 355 0.0 0.0 0.00 0.00 0.00 91 1007.9
20260902093115 60 355 0.0 0.0 0.00 0.00 0.00 91 1007.9
20260902093001 60 355 0.0 0.0 0.00 0.00 0.00 91 1008.0
20260902091537 59 355 0.0 0.0 0.00 0.00 0.00 91 1008.0
20260902090014 59 355 0.0 0.0 0.00 0.00 0.00 90 1008.1
20260902084511 59 355 0.0 0.0 0.00 0.00 0.00 90 1008.1
20260902083015 59 355 0.0 0.0 0.00 0.00 0.00 90 1008.1
20260902081612 59 355 0.0 0.0 0.00 0.00 0.00 90 1008.1
20260902080039 60 355 0.0 0.0 0.00 0.00 0.00 90 1008.1
20260902074515 59 355 0.0 0.0 0.00 0.00 0.00 89 1008.0
20260902073055 59 355 0.0 0.0 0.00 0.00 0.00 89 1008.0
20260902071559 59 355 0.0 0.0 0.00 0.00 0.00 88 1007.6
20260902070034 60 355 0.0 0.0 0.00 0.00 0.00 88 1007.6
20260902064529 60 355 0.0 0.0 0.00 0.00 0.00 88 1007.6
20260902063019 60 355 0.0 0.0 0.00 0.00 0.00 87 1007.6
20260902061557 60 355 0.0 0.0 0.00 0.00 0.00 87 1007.6
20260902060039 60 355 0.0 0.0 0.00 0.00 0.00 86 1007.6
20260902054510 61 355 0.0 0.0 0.00 0.00 0.00 85 1007.3
20260902053045 61 355 0.0 0.0 0.00 0.00 0.00 84 1007.3
20260902051545 61 355 0.0 0.0 0.00 0.00 0.00 84 1007.5
20260902050022 61 355 0.0 0.0 0.00 0.00 0.00 83 1007.3
20260902044545 62 355 0.0 0.0 0.00 0.00 0.00 83 1007.3
20260902043023 62 355 0.0 0.0 0.00 0.00 0.00 83 1007.0
20260902041520 62 355 0.0 0.0 0.00 0.00 0.00 82 1006.6
20260902040019 63 355 0.0 0.0 0.00 0.00 0.00 82 1006.5
20260902034520 63 355 0.0 0.0 0.00 0.00 0.00 80 1006.2
20260902033109 64 355 0.0 0.0 0.00 0.00 0.00 79 1006.2
20260902033001 64 355 0.0 0.0 0.00 0.00 0.00 80 1006.0
20260902031537 64 263 0.0 0.0 0.00 0.00 0.00 79 1006.0
20260902030021 64 272 0.0 0.0 0.00 0.00 0.00 78 1005.9
20260902024510 65 272 0.0 0.0 0.00 0.00 0.00 75 1005.9
20260902023048 65 272 0.0 0.0 0.00 0.00 0.00 74 1005.9
20260902021540 66 272 0.0 0.0 0.00 0.00 0.00 73 1005.8
20260902020003 67 271 0.0 0.0 0.00 0.00 0.00 72 1005.9
20260902014551 68 271 0.0 0.0 0.00 0.00 0.00 71 1005.9
20260902013027 69 250 0.0 0.0 0.00 0.00 0.00 70 1005.9
20260902011524 70 284 0.0 0.0 0.00 0.00 0.00 68 1006.0
20260902010023 71 286 0.0 0.0 0.00 0.00 0.00 67 1006.1
20260902004523 71 297 2.0 0.0 0.00 0.00 0.00 67 1006.1
20260902003051 71 265 1.0 0.0 0.00 0.00 0.00 64 1006.1
20260902001553 71 290 2.0 0.0 0.00 0.00 0.00 63 1006.1
20260902000015 72 190 1.0 0.0 0.00 0.00 0.00 63 1006.3
20260901234602 72 272 2.0 0.0 0.00 0.00 0.00 62 1006.3
20260901233024 72 244 2.0 0.0 0.00 0.00 0.00 62 1006.3
20260901231513 73 238 2.0 0.0 0.00 0.00 0.00 62 1006.4
20260901230057 73 234 2.0 0.0 0.00 0.00 0.00 59 1006.4
20260901224552 75 259 1.0 0.0 0.00 0.00 0.00 59 1006.4
20260901223041 75 255 1.0 0.0 0.00 0.00 0.00 55 1006.5
20260901221600 75 265 1.0 0.0 0.00 0.00 0.00 58 1006.5
20260901220034 76 274 1.0 0.0 0.00 0.00 0.00 55 1006.8
20260901214530 76 227 1.0 0.0 0.00 0.00 0.00 57 1006.9
20260901213012 75 232 1.0 0.0 0.00 0.00 0.00 58 1007.0
20260901211510 75 279 3.0 0.0 0.00 0.00 0.00 57 1007.0
20260901210048 76 280 1.0 0.0 0.00 0.00 0.00 55 1007.0
20260901204547 76 273 1.0 0.0 0.00 0.00 0.00 52 1007.1
20260901203058 77 248 1.0 0.0 0.00 0.00 0.00 55 1007.1
20260901201548 79 231 0.0 0.0 0.00 0.00 0.00 53 1007.5
20260901200040 79 193 0.0 0.0 0.00 0.00 0.00 52 1007.5
20260901194536 79 202 0.0 0.0 0.00 0.00 0.00 52 1007.6
20260901193107 80 223 0.0 0.0 0.00 0.00 0.00 50 1007.7
20260901191603 81 307 0.0 0.0 0.00 0.00 0.00 50 1007.9